Weather reports worldwide

Advertisment
Treviso/S. Angelo, Italy (16099): temperature & dewpoint: 20.03.2019 08:00:00 - 26.03.2019 08:00:00 (CET)Treviso/S. Angelo, Italy (16099): wind speed: 20.03.2019 08:00:00 - 26.03.2019 08:00:00 (CET)Treviso/S. Angelo, Italy (16099): wind direction: 20.03.2019 08:00:00 - 26.03.2019 08:00:00 (CET)Treviso/S. Angelo, Italy (16099): reduced air pressure: 20.03.2019 08:00:00 - 26.03.2019 08:00:00 (CET)Treviso/S. Angelo, Italy (16099): visibility: 20.03.2019 08:00:00 - 26.03.2019 08:00:00 (CET)Treviso/S. Angelo, Italy (16099): precipitation: 20.03.2019 08:00:00 - 26.03.2019 08:00:00 (CET)
Date & Time tt [°C] td [°C] ff [km/h] ff [kn] dd ppp [hPa] vv [km] rr [mm]
26.03.2019 08:00:00 - - - - - - - -
26.03.2019 07:00:00 7,2 2,7 5 3 NW 1020,8 - -
26.03.2019 06:00:00 - - - - - - - -
26.03.2019 05:00:00 - - - - - - - -
26.03.2019 04:00:00 6,9 3,4 2 1 N 1020,0 - 0,0
26.03.2019 03:00:00 - - - - - - - -
26.03.2019 02:00:00 - - - - - - - -
26.03.2019 01:00:00 6,3 3,4 29 16 E 1017,7 - -
26.03.2019 00:00:00 - - - - - - - -
25.03.2019 23:00:00 - - - - - - - -
25.03.2019 22:00:00 10,2 6,6 24 13 ENE 1012,7 7 0,0
25.03.2019 21:00:00 - - - - - - - -
25.03.2019 20:00:00 - - - - - - - -
25.03.2019 19:00:00 15,9 10,1 11 6 E 1006,4 - -
25.03.2019 18:00:00 - - - - - - - -
25.03.2019 17:00:00 - - - - - - - -
25.03.2019 16:00:00 19,4 10,3 11 6 SE 1007,1 - 0,0
25.03.2019 15:00:00 - - - - - - - -
25.03.2019 14:00:00 - - - - - - - -
25.03.2019 13:00:00 19,5 4,9 4 2 ENE 1010,3 20 -
25.03.2019 12:00:00 - - - - - - - -
25.03.2019 11:00:00 - - - - - - - -
25.03.2019 10:00:00 15,3 4,8 11 6 ENE 1012,9 20 0,0
25.03.2019 09:00:00 - - - - - - - -
25.03.2019 08:00:00 - - - - - - - -
25.03.2019 07:00:00 8,8 6,0 8 4 NE 1013,8 - -
25.03.2019 06:00:00 - - - - - - - -
25.03.2019 05:00:00 - - - - - - - -
25.03.2019 04:00:00 8,7 5,3 5 3 N 1014,3 - 0,0
25.03.2019 03:00:00 - - - - - - - -
25.03.2019 02:00:00 - - - - - - - -
25.03.2019 01:00:00 10,6 6,0 5 3 NNE 1015,9 - -
25.03.2019 00:00:00 - - - - - - - -
24.03.2019 23:00:00 - - - - - - - -
24.03.2019 22:00:00 11,7 5,5 4 2 NE 1017,2 25 0,0
24.03.2019 21:00:00 - - - - - - - -
24.03.2019 20:00:00 - - - - - - - -
24.03.2019 19:00:00 17,0 4,8 9 5 SE 1016,8 20 -
24.03.2019 18:00:00 - - - - - - - -
24.03.2019 17:00:00 - - - - - - - -
24.03.2019 16:00:00 23,7 4,6 9 5 SSW 1017,5 25 0,0
24.03.2019 15:00:00 - - - - - - - -
24.03.2019 14:00:00 - - - - - - - -
24.03.2019 13:00:00 22,8 5,6 9 5 SSW 1020,5 25 -
24.03.2019 12:00:00 - - - - - - - -
24.03.2019 11:00:00 - - - - - - - -
24.03.2019 10:00:00 19,2 4,1 4 2 - 1022,3 25 0,0
24.03.2019 09:00:00 - - - - - - - -
24.03.2019 08:00:00 - - - - - - - -
24.03.2019 07:00:00 8,0 4,3 0 0 N 1022,9 - -
24.03.2019 06:00:00 - - - - - - - -
24.03.2019 05:00:00 - - - - - - - -
24.03.2019 04:00:00 8,4 4,5 5 3 NNW 1023,0 - 0,0
24.03.2019 03:00:00 - - - - - - - -
24.03.2019 02:00:00 - - - - - - - -
24.03.2019 01:00:00 10,3 4,3 5 3 N 1023,7 - -
24.03.2019 00:00:00 - - - - - - - -
23.03.2019 23:00:00 - - - - - - - -
23.03.2019 22:00:00 13,1 4,6 2 1 N 1023,8 10 0,0
23.03.2019 21:00:00 - - - - - - - -
23.03.2019 20:00:00 - - - - - - - -
23.03.2019 19:00:00 17,4 4,1 5 3 SSW 1022,9 25 -
23.03.2019 18:00:00 - - - - - - - -
23.03.2019 17:00:00 - - - - - - - -
23.03.2019 16:00:00 22,6 3,3 4 2 N 1023,0 30 0,0
23.03.2019 15:00:00 - - - - - - - -
23.03.2019 14:00:00 - - - - - - - -
23.03.2019 13:00:00 21,4 2,9 4 2 N 1024,9 25 -
23.03.2019 12:00:00 - - - - - - - -
23.03.2019 11:00:00 - - - - - - - -
23.03.2019 10:00:00 17,9 0,9 8 4 NNE 1026,1 25 0,0
23.03.2019 09:00:00 - - - - - - - -
23.03.2019 08:00:00 - - - - - - - -
23.03.2019 07:00:00 7,6 0,2 4 2 NW 1026,1 - -
23.03.2019 06:00:00 - - - - - - - -
23.03.2019 05:00:00 - - - - - - - -
23.03.2019 04:00:00 5,8 0,0 4 2 N 1025,8 - 0,0
23.03.2019 03:00:00 - - - - - - - -
23.03.2019 02:00:00 - - - - - - - -
23.03.2019 01:00:00 8,6 0,0 2 1 NNW 1026,9 - -
23.03.2019 00:00:00 - - - - - - - -
22.03.2019 23:00:00 - - - - - - - -
22.03.2019 22:00:00 9,9 0,2 0 0 N 1027,3 10 0,0
22.03.2019 21:00:00 - - - - - - - -
22.03.2019 20:00:00 - - - - - - - -
22.03.2019 19:00:00 15,9 -0,5 4 2 SW 1027,1 10 -
22.03.2019 18:00:00 - - - - - - - -
22.03.2019 17:00:00 - - - - - - - -
22.03.2019 16:00:00 19,9 -3,4 4 2 S 1027,4 20 0,0
22.03.2019 15:00:00 - - - - - - - -
22.03.2019 14:00:00 - - - - - - - -
22.03.2019 13:00:00 18,4 -1,3 5 3 N 1029,7 30 -
22.03.2019 12:00:00 - - - - - - - -
22.03.2019 11:00:00 - - - - - - - -
22.03.2019 10:00:00 14,8 0,0 8 4 NE 1031,2 30 0,0
22.03.2019 09:00:00 - - - - - - - -
22.03.2019 08:00:00 - - - - - - - -
22.03.2019 07:00:00 4,9 0,1 4 2 WNW 1030,7 - -
22.03.2019 06:00:00 - - - - - - - -
22.03.2019 05:00:00 - - - - - - - -
22.03.2019 04:00:00 4,6 -0,6 4 2 N 1030,4 - 0,0
22.03.2019 03:00:00 - - - - - - - -
22.03.2019 02:00:00 - - - - - - - -
22.03.2019 01:00:00 4,8 0,7 0 0 N 1031,4 - -
22.03.2019 00:00:00 - - - - - - - -
21.03.2019 23:00:00 - - - - - - - -
21.03.2019 22:00:00 8,1 1,7 2 1 N 1031,3 25 0,0
21.03.2019 21:00:00 - - - - - - - -
21.03.2019 20:00:00 - - - - - - - -
21.03.2019 19:00:00 12,7 0,3 4 2 SW 1030,1 30 -
21.03.2019 18:00:00 - - - - - - - -
21.03.2019 17:00:00 - - - - - - - -
21.03.2019 16:00:00 16,6 -1,5 11 6 E 1030,3 30 0,0
21.03.2019 15:00:00 - - - - - - - -
21.03.2019 14:00:00 - - - - - - - -
21.03.2019 13:00:00 14,8 -2,5 16 9 ENE 1032,4 10 -
21.03.2019 12:00:00 - - - - - - - -
21.03.2019 11:00:00 - - - - - - - -
21.03.2019 10:00:00 11,5 -3,3 16 9 ENE 1033,7 10 0,0
21.03.2019 09:00:00 - - - - - - - -
21.03.2019 08:00:00 - - - - - - - -
21.03.2019 07:00:00 4,8 -2,0 8 4 N 1033,2 - -
21.03.2019 06:00:00 - - - - - - - -
21.03.2019 05:00:00 - - - - - - - -
21.03.2019 04:00:00 5,0 -2,8 5 3 NNE 1032,3 - 0,0
21.03.2019 03:00:00 - - - - - - - -
21.03.2019 02:00:00 - - - - - - - -
21.03.2019 01:00:00 6,7 -2,7 8 4 N 1033,1 - -
21.03.2019 00:00:00 - - - - - - - -
20.03.2019 23:00:00 - - - - - - - -
20.03.2019 22:00:00 9,2 -3,2 11 6 NE 1032,5 - 0,0
20.03.2019 21:00:00 - - - - - - - -
20.03.2019 20:00:00 - - - - - - - -
20.03.2019 19:00:00 9,7 -2,0 9 5 E 1031,0 - -
20.03.2019 18:00:00 - - - - - - - -
20.03.2019 17:00:00 - - - - - - - -
20.03.2019 16:00:00 14,0 -2,5 16 9 E 1029,7 - 0,0
20.03.2019 15:00:00 - - - - - - - -
20.03.2019 14:00:00 - - - - - - - -
20.03.2019 13:00:00 13,1 -1,2 9 5 NNE 1031,0 25 -
20.03.2019 12:00:00 - - - - - - - -
20.03.2019 11:00:00 - - - - - - - -
20.03.2019 10:00:00 10,4 -0,4 16 9 ENE 1031,8 30 0,0
20.03.2019 09:00:00 - - - - - - - -
20.03.2019 08:00:00 - - - - - - - -

tt = temperature
td = dewpoint
ff = wind speed
dd = wind direction
ppp = reduced air pressure
vv = visibility
rr = precipitation

Next stations